sat.trackr.live / text

‹ back to catalog

STARLINK-33795

NORAD 63457 · 2025-069AA

PAYLOAD ACTIVE UNKNOWN

§ Identity

Operator
Country
US
Launch date
2025-04-04
Launch site
AFWTR
Launch vehicle
Mass (kg)
RCS (m²)

Purposes: comms

External: N2YO · Heavens-Above · Gunter

§ Orbital elements

Epoch: 2026-09-20T09:34:45.782400Z

Period
93.84 min
Inclination
53.1599°
Eccentricity
0.0001303
Mean motion
15.34449484 rev/d
Perigee alt
461.7 km
Apogee alt
463.4 km
Semi-major
6,840.7 km
B*
3.6703e-4
RAAN
310.3847°
Arg perigee
79.1768°
Mean anomaly
280.9381°
Rev number
8,321

§ Raw data

STARLINK-337951 63457U 25069AA  26263.39914100  .00012064  00000+0  36703-3 0  99972 63457  53.1599 310.3847 0001303  79.1768 280.9381 15.34449484 83211

JSON: /api/v1/satellites/63457 · /tle

For live sub-satellite position, see the globe view (requires WebGL).

§ Visibility from observer

Set your observer location to see the next 7 days of passes ≥ 10°. The values pass through the URL so the page stays shareable.

No JS? Fill the form by hand. The geolocation button needs JavaScript.